Olive Branch, MS

11:05 PM CST on February 19, 2017 (GMT -0600)
Olive Branch

Weather History for KOLV - February, 2014

Change the Weather History Date:

Thursday, February 27, 2014

  Actual Average (KMEM) Record (KMEM)
Temperature  
Mean Temperature 32 °F -  
Max Temperature 46 °F 57 °F 80 °F (1981)
Min Temperature 17 °F 37 °F 12 °F (1934)
Degree Days  
Heating Degree Days 34    
Moisture  
Dew Point 16 °F    
Average Humidity 65    
Maximum Humidity 100    
Minimum Humidity 29    
Precipitation  
Precipitation 0.00 in - - ()
Sea Level Pressure  
Sea Level Pressure 30.08 in    
Wind  
Wind Speed 1 mph (North)    
Max Wind Speed 12 mph    
Max Gust Speed -    
Visibility 10 miles    
Events      
Averages and records for this station are not official NWS values.
T = Trace of Precipitation, MM = Missing Value Source: NWS Daily Summary

Daily Weather History Graph

Daily Weather History Graph

Search for Another Location

Airport or City:

Trip Planner

Search our weather history database for the weather conditions in past years. The results will help you decide how hot, cold, wet, or windy it might be!

Date:

Astronomy

Feb. 27, 2014 Rise Set
Actual Time 6:31 AM CST 5:53 PM CST
Civil Twilight 6:05 AM CST 6:18 PM CST
Nautical Twilight 5:36 AM CST 6:47 PM CST
Astronomical Twilight 5:07 AM CST 7:17 PM CST
Moon 5:00 AM CST (2/27) 4:20 PM CST (2/27)
Length of Visible Light 12h 12m
Length of Day
11h 22m
Waning Crescent, 4% of the Moon is Illuminated
Feb 27
Waning Crescent
Mar 1
New
Mar 8
First Quarter
Mar 16
Full
Mar 23
Last Quarter

Hourly Weather History & Observations

Time (CST) Temp. Windchill Dew Point Humidity Pressure Visibility Wind Dir Wind Speed Gust Speed Precip Events Conditions
12:15 AM 21.2 °F - 14.0 °F 74% 30.09 in 9.0 mi Calm Calm - 0.00 in   Clear
12:35 AM 19.4 °F - 17.6 °F 93% 30.08 in 10.0 mi Calm Calm - 0.00 in   Clear
12:55 AM 19.4 °F - 15.8 °F 86% 30.08 in 10.0 mi Calm Calm - 0.00 in   Clear
1:15 AM 19.4 °F - 17.6 °F 93% 30.08 in 10.0 mi Calm Calm - 0.00 in   Clear
1:35 AM 21.2 °F - 14.0 °F 74% 30.09 in 10.0 mi Calm Calm - 0.00 in   Clear
1:55 AM 19.4 °F - 14.0 °F 80% 30.08 in 9.0 mi Calm Calm - 0.00 in   Clear
2:15 AM 19.4 °F - 14.0 °F 80% 30.08 in 9.0 mi Calm Calm - 0.00 in   Clear
2:35 AM 21.2 °F - 14.0 °F 74% 30.08 in 10.0 mi Calm Calm - 0.00 in   Clear
2:55 AM 21.2 °F - 14.0 °F 74% 30.08 in 10.0 mi Calm Calm - 0.00 in   Clear
3:15 AM 21.2 °F - 14.0 °F 74% 30.08 in 10.0 mi Calm Calm - 0.00 in   Clear
3:35 AM 21.2 °F - 14.0 °F 74% 30.08 in 9.0 mi Calm Calm - 0.00 in   Clear
3:55 AM 19.4 °F - 15.8 °F 86% 30.08 in 10.0 mi Calm Calm - 0.00 in   Clear
4:15 AM 21.2 °F - 15.8 °F 80% 30.09 in 10.0 mi Calm Calm - 0.00 in   Clear
4:35 AM 21.2 °F - 15.8 °F 80% 30.09 in 10.0 mi Calm Calm - 0.00 in   Clear
4:55 AM 19.4 °F - 17.6 °F 93% 30.09 in 9.0 mi Calm Calm - 0.00 in   Clear
5:15 AM 19.4 °F - 17.6 °F 93% 30.09 in 10.0 mi Calm Calm - 0.00 in   Clear
5:35 AM 19.4 °F - 17.6 °F 93% 30.09 in 9.0 mi Calm Calm - 0.00 in   Clear
5:55 AM 19.4 °F - 17.6 °F 93% 30.09 in 9.0 mi Calm Calm - 0.00 in   Clear
6:15 AM 17.6 °F - 17.6 °F 100% 30.09 in 10.0 mi Calm Calm - 0.00 in   Clear
6:35 AM 19.4 °F - 17.6 °F 93% 30.09 in 10.0 mi Calm Calm - 0.00 in   Clear
6:50 AM 19.4 °F 11.5 °F 17.6 °F 93% 30.10 in 10.0 mi WSW 5.8 mph - N/A   Clear
7:50 AM 26.6 °F - 21.2 °F 80% 30.11 in 10.0 mi Calm Calm - N/A   Clear
8:50 AM 32.0 °F 26.4 °F 15.8 °F 51% 30.12 in 10.0 mi NNW 5.8 mph - N/A   Clear
9:50 AM 35.6 °F 27.5 °F 14.0 °F 41% 30.13 in 10.0 mi NNW 11.5 mph - N/A   Clear
10:50 AM 37.4 °F 31.4 °F 14.0 °F 38% 30.13 in 10.0 mi NNE 8.1 mph - N/A   Clear
11:50 AM 39.2 °F - 17.6 °F 42% 30.11 in 10.0 mi Calm Calm - N/A   Clear
12:50 PM 42.8 °F 38.0 °F 17.6 °F 36% 30.08 in 10.0 mi NNE 8.1 mph - N/A   Clear
1:50 PM 44.6 °F 42.2 °F 14.0 °F 29% 30.06 in 10.0 mi WNW 4.6 mph - N/A   Clear
2:50 PM 46.4 °F 45.2 °F 15.8 °F 29% 30.04 in 10.0 mi WNW 3.5 mph - N/A   Clear
3:50 PM 46.4 °F 44.3 °F 15.8 °F 29% 30.03 in 10.0 mi West 4.6 mph - N/A   Clear
4:50 PM 44.6 °F - 14.0 °F 29% 30.02 in 10.0 mi Calm Calm - N/A   Clear
5:50 PM 41.0 °F 39.0 °F 14.0 °F 33% 30.02 in 10.0 mi West 3.5 mph - N/A   Clear
6:50 PM 37.4 °F 33.8 °F 17.6 °F 45% 30.05 in 10.0 mi WNW 4.6 mph - N/A   Clear
7:50 PM 33.8 °F 28.6 °F 17.6 °F 52% 30.05 in 10.0 mi North 5.8 mph - N/A   Clear
8:55 PM 33.8 °F 29.6 °F 17.6 °F 52% 30.06 in 9.0 mi NE 4.6 mph - 0.00 in   Clear
9:15 PM 32.0 °F - 17.6 °F 55% 30.07 in 9.0 mi Calm Calm - 0.00 in   Clear
9:35 PM 32.0 °F 27.5 °F 17.6 °F 55% 30.07 in 10.0 mi NNE 4.6 mph - 0.00 in   Clear
9:55 PM 32.0 °F 27.5 °F 17.6 °F 55% 30.07 in 10.0 mi NE 4.6 mph - 0.00 in   Clear
10:15 PM 32.0 °F 27.5 °F 17.6 °F 55% 30.06 in 10.0 mi NE 4.6 mph - 0.00 in   Clear
10:35 PM 32.0 °F - 17.6 °F 55% 30.07 in 10.0 mi Calm Calm - 0.00 in   Clear
10:55 PM 32.0 °F 27.5 °F 17.6 °F 55% 30.07 in 10.0 mi ENE 4.6 mph - 0.00 in   Clear
11:15 PM 32.0 °F 27.5 °F 17.6 °F 55% 30.06 in 9.0 mi ENE 4.6 mph - 0.00 in   Clear
11:35 PM 32.0 °F 25.6 °F 17.6 °F 55% 30.06 in 10.0 mi East 6.9 mph - 0.00 in   Clear
11:55 PM 32.0 °F 26.4 °F 17.6 °F 55% 30.06 in 9.0 mi East 5.8 mph - 0.00 in   Clear